User: anonymous
Location: Maiden_LMO
(35.5760°N, 81.2120°W)
Time: 15:14:00
(UTC-04:00)
Language:

Cosmos 2278 Rocket - Orbit

View from above orbital plane
View from above orbital plane
View from above satellite
View from above satellite

Ground track
Ground track

The orbit data is extracted from the following two-line orbital elements,

1 23088U 94023B   14210.77888293  .00000246  00000-0  15279-3 0  9820
2 23088 071.0017 332.9167 0005355 265.3312 244.9816 14.14567869 46577
Epoch (UTC): 29 July 2014 18:41:35
Eccentricity: 0.0005355
inclination: 71.0017°
perigee height: 840 km
apogee height: 847 km
right ascension of ascending node: 332.9167°
argument of perigee: 265.3312°
revolutions per day: 14.14567869
mean anomaly at epoch: 244.9816°
orbit number at epoch: 4657

The dashed part of the orbit path shows where the satellite is in the earth's shadow,  

DLR